Temperature
14 14 14 14 14 14 14 14 15 15 15 16 16 16 16 16 16 16 16 16 15 15 15 15 15 15 15 15 15 15 15 16 16 16 16 16 16 16
14 14 14 14 14 14 14 14 15 15 15 15 16 15 15 15 15 15 15 15 14 14 14 15 15 15 14 14 14 14 14 15 15 15 15 15 15 15
14 14 14 14 14 14 14 14 14 15 15 15 14 14 14 14 14 14 14 14 14 14 14 14 14 13 13 13 13 13 14 14 14 14 14 14 15 14
14 14 13 13 14 14 14 14 14 14 14 14 14 13 13 13 13 13 13 14 14 13 13 12 12 13 13 13 13 13 13 13 13 14 14 14 14 14
14 14 13 13 14 14 14 14 14 14 14 14 13 13 13 12 12 13 13 12 12 12 12 12 12 12 12 13 13 13 13 13 13 13 13 13 13 13
14 14 13 13 13 14 14 13 13 13 13 13 13 12 12 11 12 12 11 12 11 12 12 11 11 12 12 12 12 12 13 13 13 13 13 13 13 13
14 13 13 13 13 14 13 13 12 13 13 12 12 11 11 11 11 11 11 11 11 11 11 11 11 11 11 11 12 12 12 12 12 12 12 13 13 13
13 13 13 13 13 13 13 12 12 12 12 12 11 11 11 11 11 11 11 11 11 11 11 10 11 11 11 11 11 11 11 11 11 11 12 12 12 12
13 13 13 13 13 13 12 12 12 12 12 12 11 11 11 11 11 11 11 12 12 11 11 10 11 11 10 10 10 10 10 10 10 10 10 10 10 10
13 13 13 13 12 12 12 12 12 11 11 11 12 11 11 11 11 12 12 12 12 11 11 11 11 11 10 10 10 9 9 9 9 9 9 9 9 8
12 12 12 12 12 12 12 12 12 11 11 11 12 11 11 11 12 12 12 12 12 11 11 11 10 10 10 10 9 9 9 8 8 8 8 8 8 8
11 12 12 12 12 12 12 12 12 11 11 11 11 11 12 12 12 12 12 12 12 12 12 11 11 10 9 9 9 9 8 8 8 8 8 7 7 8
10 11 12 12 12 12 12 12 12 12 11 11 11 12 12 12 12 12 12 12 12 12 12 12 11 11 11 10 9 9 9 9 8 8 7 7 7 7
10 10 11 12 12 11 11 11 12 12 11 11 11 11 11 11 12 12 12 13 13 12 12 12 12 11 11 10 10 9 9 9 8 8 7 7 7 7
9 9 10 11 11 11 11 11 11 11 11 11 11 11 11 11 11 11 11 12 12 11 11 11 11 11 11 11 10 10 9 9 8 8 8 8 8 7
9 9 9 10 11 11 11 11 11 12 12 12 12 11 10 10 10 10 11 11 11 11 11 11 11 11 11 10 10 10 9 9 8 8 8 8 8 8
8 8 9 10 10 11 11 11 11 12 12 12 11 11 10 10 10 10 10 11 11 10 10 10 10 10 10 10 10 9 9 9 8 8 8 8 8 7
8 8 8 10 10 10 10 11 11 11 12 11 11 11 10 10 10 10 10 10 10 10 10 10 10 10 10 10 10 9 9 9 8 8 7 7 7 7
8 9 9 10 10 10 10 11 11 11 11 11 11 11 11 11 11 11 11 11 11 10 10 10 10 10 9 9 9 9 9 9 8 8 7 7 7 7
9 10 11 11 11 11 11 11 11 11 11 11 11 11 11 11 11 11 11 11 11 10 10 10 10 10 10 10 9 9 9 9 8 8 8 7 7 7
10 11 11 11 11 11 11 11 11 11 11 11 11 11 11 11 11 11 11 11 11 11 10 10 10 10 10 10 10 10 9 9 9 8 8 8 7 7
10 11 11 12 12 12 12 11 11 11 11 11 11 11 11 11 11 11 11 11 11 11 11 10 10 10 9 9 10 10 10 9 9 9 8 8 8 7
10 11 11 12 12 12 11 11 11 11 11 11 11 11 11 12 11 11 11 11 11 11 10 10 10 9 10 9 10 10 10 9 9 9 9 8 8 7
Wind_Speed
8 9 9 9 8 8 8 9 8 7 5 3 1 5 7 7 10 13 11 13 15 15 15 15 15 17 18 18 18 19 18 18 18 18 18 18 15 10
7 8 8 8 7 7 8 9 9 8 5 2 2 5 9 10 14 14 14 17 17 17 17 17 18 18 19 19 19 19 18 18 18 18 19 19 19 17
7 8 8 8 5 5 5 7 8 7 7 2 3 7 11 12 11 11 13 13 14 19 19 20 19 19 19 19 19 19 18 18 18 17 18 18 18 17
6 7 8 7 6 5 5 6 7 7 6 7 6 6 9 11 11 11 9 12 13 18 20 20 20 20 19 19 20 20 20 19 18 17 17 17 16 15
5 6 6 6 5 4 4 6 6 5 6 9 8 7 7 9 11 11 11 9 11 16 19 19 19 19 19 19 20 20 19 20 19 17 16 15 15 15
5 5 5 3 4 4 3 5 5 1 7 10 11 9 8 8 9 11 10 8 8 11 13 15 18 20 19 18 19 19 19 20 19 19 19 17 17 17
5 2 2 6 8 6 4 4 3 3 7 10 10 10 8 8 7 6 9 9 9 9 10 9 9 9 12 15 16 17 19 20 20 19 18 16 16 16
3 3 7 7 9 11 11 10 8 7 9 10 10 10 8 6 4 7 8 10 7 6 8 8 8 8 7 9 11 15 16 17 17 17 16 14 11 10
4 5 6 8 8 8 8 9 10 10 10 9 11 9 7 6 6 7 8 8 7 7 8 9 9 8 6 9 12 13 13 13 14 14 14 12 9 6
5 6 8 9 7 8 7 8 8 6 7 7 8 7 6 7 8 7 8 8 7 7 9 8 8 8 7 7 11 13 12 11 11 11 12 13 12 5
6 7 9 9 11 9 8 10 9 8 11 13 12 11 10 8 7 8 9 8 6 5 6 6 8 8 5 4 8 10 9 9 7 6 5 9 13 11
4 6 11 12 12 9 8 8 9 9 9 10 8 9 8 9 10 5 3 6 7 4 3 5 8 6 4 4 5 8 7 6 4 3 2 1 5 7
3 4 8 16 14 11 9 8 11 10 8 7 6 5 5 6 7 7 6 2 6 5 3 3 6 5 5 5 4 5 5 4 4 2 5 6 4 1
3 4 6 17 16 12 8 13 16 12 7 6 6 5 5 7 7 7 8 8 10 8 6 5 4 3 5 5 5 4 4 4 4 2 4 2 8 5
1 6 7 15 15 9 12 17 14 7 6 6 6 6 7 8 7 5 6 8 8 10 12 9 6 4 5 6 5 4 3 4 4 4 4 4 1 3
1 3 11 13 11 12 12 11 7 5 5 5 7 9 8 6 6 5 5 6 7 6 7 11 9 7 5 5 5 4 3 3 4 3 3 5 1 4
6 5 8 8 9 9 8 7 6 4 4 7 10 9 7 6 6 6 6 6 6 5 4 4 5 6 6 5 3 3 3 4 4 2 2 3 2 3
10 9 10 10 10 10 9 7 5 5 5 8 8 7 7 7 6 6 7 8 8 7 6 5 4 3 2 4 4 3 4 4 2 2 2 2 3 2
10 10 10 9 9 9 8 7 6 6 6 7 6 6 6 6 6 5 4 6 7 7 7 6 6 5 6 6 3 3 3 3 1 1 1 2 2 1
9 8 8 8 9 9 8 8 7 8 7 7 7 6 7 7 6 5 5 6 7 6 5 3 3 3 3 3 4 5 7 4 3 2 2 2 3 3
5 4 7 8 8 8 8 9 9 8 7 7 6 7 7 7 6 6 6 8 7 6 6 5 3 2 1 0 2 4 5 10 8 5 4 3 3 3
2 2 4 7 7 7 7 9 9 7 7 7 7 7 6 6 7 8 8 6 4 5 9 6 4 2 2 3 2 1 4 7 11 16 12 8 4 4
5 4 3 8 8 7 8 9 9 7 7 7 7 6 7 6 6 7 7 6 5 7 9 7 6 5 6 5 4 4 3 4 3 3 5 14 21 22
Wind_Direction
286 286 285 283 276 269 266 261 260 271 270 232 160 97 107 112 120 107 103 100 98 95 94 92 88 84 81 78 76 74 73 75 75 76 76 73 65 58
283 281 283 283 277 270 262 258 250 242 246 212 158 134 124 114 101 99 100 98 95 96 94 92 90 86 84 82 80 79 77 75 74 74 75 76 72 65
296 297 303 306 308 297 281 263 253 237 226 175 98 121 119 116 110 109 108 103 101 99 98 95 92 89 87 85 83 80 78 76 75 74 75 76 75 70
291 297 306 317 321 316 313 288 265 237 196 153 132 124 121 118 118 115 113 111 108 105 104 100 96 92 89 86 83 80 77 74 73 73 74 75 76 75
282 294 303 314 320 333 327 311 288 249 177 147 139 129 124 123 117 112 112 115 113 113 105 101 99 95 90 87 84 81 78 75 74 74 75 76 77 76
262 270 287 320 347 340 350 332 313 235 147 138 136 134 131 125 124 126 126 130 127 118 106 107 103 94 90 88 85 81 77 75 74 73 74 75 77 79
248 245 80 83 67 42 47 22 15 88 124 129 132 133 134 134 136 137 134 133 125 129 129 131 121 107 96 86 84 83 80 78 77 74 72 73 76 81
223 149 141 132 102 79 67 55 57 92 116 126 132 137 133 132 131 141 144 142 141 161 145 134 118 105 96 92 97 93 89 85 82 78 75 73 77 83
190 172 179 143 136 117 97 78 65 79 101 122 134 136 143 163 172 177 163 146 137 150 133 118 110 105 109 123 128 118 110 100 90 79 72 70 71 104
186 163 139 150 151 145 131 100 77 74 118 123 127 132 151 185 201 180 142 128 129 132 129 127 129 126 127 140 152 142 131 118 102 81 58 41 35 61
197 160 145 145 152 150 128 115 103 91 96 113 122 129 131 128 138 129 131 137 144 144 141 131 138 134 139 148 172 171 158 148 137 117 74 35 21 34
225 166 152 143 151 149 138 133 127 127 128 124 121 122 109 85 71 84 137 160 151 136 127 127 144 141 146 162 168 184 195 190 183 195 211 319 15 31
302 194 154 148 151 155 155 146 143 141 138 135 127 114 100 85 69 53 40 93 140 119 111 121 151 151 143 157 172 172 157 142 138 155 222 225 231 99
317 295 176 161 156 156 154 150 154 153 152 153 150 147 122 94 79 63 52 59 88 88 53 58 96 124 148 141 127 123 127 121 104 55 357 213 210 197
249 297 214 171 152 148 152 156 165 179 166 163 153 130 112 109 103 88 73 69 67 67 56 48 61 47 68 109 119 119 116 120 106 73 351 315 202 166
106 224 185 171 152 141 153 163 185 201 164 148 124 117 119 130 138 145 129 111 95 77 58 56 46 42 69 73 99 116 115 113 108 89 320 302 296 112
141 173 179 168 149 149 161 180 198 170 145 126 126 133 147 161 161 160 142 125 117 118 109 84 72 71 69 50 74 89 96 104 115 112 296 322 342 91
161 187 179 168 156 157 167 180 178 154 136 127 136 154 172 168 158 163 166 155 150 150 149 146 136 119 96 40 25 53 77 75 49 3 0 4 339 58
184 189 177 165 158 164 173 169 164 150 134 139 156 170 158 143 146 164 158 138 138 141 150 162 172 176 194 186 229 277 158 150 165 343 353 327 302 317
196 179 166 160 163 168 168 164 160 147 149 162 171 165 147 146 155 157 143 137 129 130 137 146 115 88 61 112 157 206 220 197 175 198 258 287 277 282
187 167 162 160 161 161 157 153 147 152 163 160 153 143 146 156 162 162 139 143 148 158 143 121 128 133 84 329 231 170 190 216 208 196 211 245 267 279
190 219 171 149 146 147 137 136 145 156 152 143 141 148 163 171 164 146 138 152 180 144 123 128 154 177 232 244 275 245 178 192 232 234 231 227 227 253
212 235 198 153 147 145 140 146 153 152 156 151 155 168 170 156 140 134 146 173 170 136 139 155 180 210 222 206 213 240 230 202 218 193 224 236 238 248
Height
1463 1461 1460 1458 1456 1455 1455 1456 1457 1456 1456 1457 1459 1460 1460 1462 1464 1466 1469 1472 1473 1475 1477 1478 1480 1480 1481 1482 1483 1484 1485 1487 1488 1489 1491 1493 1496 1499
1459 1457 1456 1453 1451 1449 1448 1449 1450 1451 1451 1452 1453 1454 1455 1458 1460 1463 1467 1469 1471 1473 1475 1477 1478 1479 1480 1481 1482 1483 1484 1484 1484 1485 1487 1489 1491 1494
1455 1454 1453 1450 1447 1445 1443 1442 1442 1444 1445 1447 1449 1450 1452 1454 1458 1461 1465 1468 1470 1472 1474 1476 1477 1479 1480 1481 1482 1483 1483 1483 1484 1485 1486 1487 1488 1491
1451 1450 1449 1448 1445 1442 1440 1438 1436 1437 1439 1441 1444 1447 1450 1453 1457 1460 1464 1467 1469 1472 1474 1476 1478 1480 1481 1482 1482 1482 1483 1483 1484 1485 1486 1486 1488 1490
1447 1447 1446 1445 1442 1439 1436 1433 1431 1431 1434 1436 1440 1444 1448 1452 1456 1460 1464 1467 1470 1472 1475 1477 1479 1481 1482 1483 1483 1483 1483 1484 1485 1485 1486 1488 1488 1490
1443 1443 1443 1442 1440 1437 1434 1430 1428 1428 1430 1433 1437 1442 1447 1451 1455 1459 1463 1467 1470 1472 1475 1478 1480 1482 1484 1484 1485 1485 1486 1486 1487 1487 1488 1489 1489 1489
1438 1439 1439 1439 1438 1436 1433 1430 1428 1427 1429 1431 1435 1440 1445 1450 1455 1459 1462 1467 1470 1473 1475 1479 1482 1484 1486 1487 1487 1487 1487 1488 1488 1488 1488 1489 1489 1490
1434 1435 1436 1437 1436 1435 1433 1431 1430 1429 1429 1432 1435 1440 1445 1450 1455 1459 1463 1466 1471 1476 1477 1481 1484 1485 1487 1488 1489 1489 1490 1490 1489 1489 1489 1489 1490 1490
1430 1431 1433 1434 1435 1434 1434 1433 1434 1435 1436 1436 1438 1442 1446 1450 1455 1459 1464 1467 1470 1475 1479 1482 1485 1487 1489 1489 1490 1491 1491 1491 1490 1489 1489 1489 1489 1489
1426 1427 1429 1432 1433 1434 1435 1435 1436 1438 1440 1442 1443 1446 1450 1454 1458 1462 1466 1469 1473 1477 1479 1482 1486 1488 1489 1490 1491 1491 1492 1492 1491 1490 1490 1489 1490 1490
1423 1424 1426 1429 1432 1434 1435 1436 1438 1441 1444 1446 1448 1450 1453 1457 1460 1464 1467 1470 1474 1477 1480 1482 1484 1486 1489 1490 1490 1491 1492 1491 1491 1490 1490 1489 1489 1489
1419 1421 1423 1426 1430 1433 1435 1436 1439 1442 1445 1448 1451 1454 1457 1459 1462 1465 1467 1470 1473 1477 1480 1481 1483 1485 1488 1489 1490 1491 1491 1491 1491 1490 1490 1489 1488 1488
1414 1417 1420 1423 1428 1432 1434 1437 1439 1442 1446 1450 1452 1455 1458 1459 1461 1463 1466 1469 1472 1475 1479 1481 1482 1484 1485 1487 1489 1490 1490 1490 1490 1489 1489 1488 1487 1487
1408 1412 1416 1421 1425 1430 1433 1436 1439 1443 1447 1450 1453 1455 1457 1459 1461 1464 1466 1468 1471 1473 1477 1479 1481 1483 1484 1485 1488 1490 1490 1489 1489 1489 1488 1488 1487 1486
1403 1405 1410 1417 1422 1427 1431 1435 1438 1442 1446 1450 1453 1455 1457 1458 1461 1464 1466 1468 1470 1473 1476 1478 1480 1482 1483 1485 1486 1488 1490 1490 1489 1489 1488 1488 1487 1486
1398 1401 1407 1414 1419 1424 1429 1434 1438 1441 1445 1449 1452 1454 1456 1459 1461 1463 1466 1468 1470 1473 1476 1477 1480 1482 1484 1485 1487 1488 1489 1490 1489 1489 1488 1487 1487 1485
1395 1399 1405 1411 1416 1421 1427 1432 1436 1440 1444 1447 1450 1453 1457 1460 1461 1463 1466 1468 1470 1472 1474 1477 1480 1482 1484 1486 1488 1489 1490 1490 1489 1489 1488 1487 1486 1484
1392 1399 1404 1408 1413 1419 1425 1431 1435 1438 1442 1445 1448 1453 1457 1460 1462 1464 1467 1469 1470 1473 1475 1477 1480 1482 1485 1487 1488 1488 1489 1489 1488 1487 1486 1485 1484 1482
1391 1399 1404 1407 1412 1418 1424 1429 1433 1436 1440 1444 1448 1453 1456 1459 1462 1464 1467 1470 1471 1473 1475 1477 1479 1481 1483 1484 1486 1487 1487 1486 1485 1484 1482 1481 1480 1479
1391 1398 1403 1407 1412 1418 1423 1427 1431 1435 1439 1444 1448 1452 1455 1458 1461 1464 1467 1469 1471 1473 1475 1477 1479 1480 1481 1482 1483 1484 1485 1484 1482 1481 1480 1479 1478 1477
1390 1396 1402 1407 1412 1417 1422 1426 1430 1434 1439 1443 1448 1451 1454 1457 1460 1463 1466 1468 1470 1472 1474 1475 1477 1478 1480 1481 1482 1481 1481 1481 1481 1479 1478 1476 1475 1473
1390 1396 1402 1407 1412 1417 1421 1425 1429 1434 1438 1443 1447 1450 1454 1456 1459 1462 1464 1467 1469 1471 1472 1473 1475 1477 1478 1480 1480 1480 1479 1478 1478 1477 1475 1474 1472 1470
1391 1396 1402 1408 1412 1417 1421 1425 1430 1434 1438 1442 1446 1450 1453 1455 1458 1460 1462 1465 1468 1469 1471 1473 1474 1476 1477 1478 1478 1478 1477 1477 1476 1474 1473 1471 1470 1468